Погода в Новоселье

Россия / Псковская область     58°31′42″N   28°49′46″E
темп.,
°C
ветер,
м/с
пор.,
м/с
влажн.,
%
обл.,
%
осадки,
мм/ч
давл.,
гПа
погр.,
м
20 апреля, вт
вт2000:00+5всв28673 0.0 1024185
03:00+3в27725 0.0 1023141
06:00+2всв267797 0.0 1022130
09:00+6в4764100 0.0 1021469
12:00+10в564332 0.0 10191790
15:00+8вюв4655100 0.1 10191238
18:00+8вюв4556100 0.1 10171263
21:00+5в2677100 0.1 1016263
21 апреля, ср
ср2100:00+4вюв228496 0.0 101546
03:00+5в1282100 0.0 101380
06:00+4всв2386100 0.0 1010103
09:00+6всв127696 0.0 1009380
12:00+9ссз2356100 0.2 10061497
15:00+9с2455100 0.3 10051247
18:00+10с245078 0.1 10041456
21:00+6ююз117175 0.1 100412
22 апреля, чт
чт2200:00+5ююз227123 0.0 100419
03:00+3юз26910 0.0 1004101
06:00+2юз23845 0.0 100548
09:00+9юз245774 0.0 1006366
12:00+13ююз354966 0.1 10061517
15:00+15ююз4635100 0.3 10062628
18:00+14юз3544100 0.0 10061707
21:00+7зсз3592100 1.1 1009366
23 апреля, пт
пт2300:00+6юз2491100 0.0 1009359
03:00+5ююз1186100 0.0 100837
06:00+4ю2386100 0.0 1007100
09:00+4юз3492100 0.3 1007556
12:00+5ю358889 1.9 1008607
15:00+9ююз575494 2.7 10071770
18:00+8ююз47595 0.8 10071554
21:00+3ююз23785 0.9 100850
24 апреля, сб
сб2400:00+1ю228851 0.0 100847
03:00+1юз2695100 0.1 1007168
06:000юз239880 0.0 100773
09:00+2зсз2498100 0.3 1007337
12:00+4зсз347799 0.2 1008860
15:00+4зсз3561100 0.3 10091284
18:00+6зсз354845 0.0 10081610
21:00+1з25795 0.1 1009105